Regional Weather Roundup
Issued by NWS

Home | Current Version | Previous Version | Text Only | Print | Product List | Glossary Off
Versions: 1 2 3 4 5 6 7 8 9 10 11 12 13 14 15 16 17 18 19 20 21 22 23 24 25 26 27 28 29 30 31 32 33 34 35 36 37 38 39 40 41 42 43 44 45 46 47 48 49 50

000
ASUS43 KLOT 281306
RWRIL

ILLINOIS REGIONAL WEATHER ROUNDUP
NATIONAL WEATHER SERVICE CHICAGO/ROMEOVILLE IL
700 AM CST WED JAN 28 2015

NOTE: "FAIR" INDICATES FEW OR NO CLOUDS BELOW 12,000 FEET WITH NO
SIGNIFICANT WEATHER AND/OR OBSTRUCTIONS TO VISIBILITY.

* THESE STATIONS ARE NOT UNDER NWS QUALITY CONTROL. THEY ALSO MAY NOT
  REPORT WEATHER SUCH AS PRECIPITATION OR FOG.

ILZ001-002-007-009-015-016-024-281400-
NORTHWEST ILLINOIS

CITY           SKY/WX    TMP DP  RH WIND       PRES   REMARKS
MOLINE         PTCLDY    25  21  85 SE7       30.21R WCI  17
STERLING*      CLOUDY    27  21  80 SE6       30.23S WCI  20
SAVANNA*       CLOUDY    29  25  86 S10       30.22S WCI  20
$$

ILZ003-004-008-010-011-017-018-281400-
NORTH CENTRAL ILLINOIS

CITY           SKY/WX    TMP DP  RH WIND       PRES   REMARKS
ROCKFORD       MOCLDY    22  16  78 S10       30.27S WCI  11
FREEPORT*      CLOUDY    25  21  86 SE9       30.23F WCI  15
ROCHELLE*      PTCLDY    18  15  88 SE8       30.25F WCI   8
DE KALB*       MOCLDY    19  16  88 SE9       30.26S WCI   8
PERU*          PTCLDY    23  19  85 SE10      30.26F WCI  13
$$

ILZ005-006-012>014-019>023-281400-
NORTHEAST ILLINOIS

CITY           SKY/WX    TMP DP  RH WIND       PRES   REMARKS
CHICAGO-OHARE  MOCLDY    20  16  84 S6        30.28R WCI  12
CHICAGO-MIDWAY PTCLDY    24  16  71 S7        30.29S WCI  16
AURORA         MOCLDY    19  14  81 SE6       30.27R WCI  11
LANSING*       CLEAR     18  14  84 SE3       30.30S
JOLIET*        PTCLDY    18  15  88 SE3       30.30R
WAUKEGAN       PTCLDY    16  14  92 SW5       30.26S WCI   9
DUPAGE AIRPORT MOCLDY    17  14  88 S6        30.27R WCI   9
KANKAKEE*      PTCLDY    19  17  90 SE3       30.31R
WHEELING       PTCLDY    19  16  88 S3        30.30R
MORRIS*        PTCLDY    20  18  93 SE5       30.28S WCI  14
ROMEOVILLE*    MOCLDY    20  16  85 S7        30.29R WCI  11
NORTHERLY ISL    N/A     23  14  68 SE6         N/A  WCI  16
$$

LMZ740>746-281400-
SOUTHERN LAKE MICHIGAN

STATION/POSITION SKY/WX   TEMP    WIND        PRES    VSBY  WAVE
                          AIR SEA DIR/SP/G                  HT/PER
                          (F)     (DEG/KT/KT) (MB)    (MI)  (FT/S)
WAUKEGAN HARBOR            25      CALM  /  1   N/A
HARRISON CRIB              25     180/ 13/ 15   N/A
BURNHAM HARBOR             24     180/  6/  8   N/A
CALUMET HARBOR             22     160/  6/  9   N/A
MICHIGAN CITY              20     130/  6/  8   N/A
$$

ILZ025>027-034>036-040-047-049-050-058-095>099-281400-
WEST-CENTRAL ILLINOIS

CITY           SKY/WX    TMP DP  RH WIND       PRES   REMARKS
QUINCY         CLEAR     28  24  85 SE15      30.16F FOG     WCI  16
GALESBURG*     PTCLDY    25  22  87 SE8       30.21S WCI  17
MACOMB*        PTCLDY    26  24  92 SE12      30.23S WCI  16
JACKSONVILLE*  CLEAR     29  25  85 SE8       30.23S WCI  21
PITTSFIELD*    CLEAR     29  26  90 SE12      30.21S WCI  19
$$

ILZ028>032-037-038-041>044-048-051>054-059>061-281400-
CENTRAL ILLINOIS

CITY           SKY/WX    TMP DP  RH WIND       PRES   REMARKS
BLOOMINGTON    PTCLDY    23  19  85 SE10      30.26F WCI  12
DECATUR        CLEAR     23  17  78 SE10      30.27F WCI  12
PEORIA         CLEAR     26  20  77 SE7       30.25S WCI  18
LACON*         PTCLDY    23  18  81 SE10      30.25S WCI  12
LINCOLN*       CLEAR     26  20  80 SE8       30.28S WCI  17
SPRINGFIELD    CLEAR     26  20  77 S9        30.25S WCI  17
TAYLORVILLE    CLEAR     27  21  80 SE12      30.26F WCI  16
$$

ILZ033-039-045-046-055>057-062-063-281400-
EAST-CENTRAL ILLINOIS

CITY           SKY/WX    TMP DP  RH WIND       PRES   REMARKS
CHAMPAIGN      CLEAR     21  16  81 SE7       30.29R WCI  12
DANVILLE*      CLEAR     19  16  86 SE3       30.28R
RANTOUL*       CLEAR     23  19  84 SE6       30.31R WCI  15
MATTOON        CLEAR     22  16  78 SE9       30.29R WCI  12
PARIS*         CLEAR     21  18  88 N3        30.32R
$$

ILZ079-100>102-281400-
SOUTHWEST ILLINOIS

CITY           SKY/WX    TMP DP  RH WIND       PRES   REMARKS
ALTON          PTCLDY    27  27 100 S12       30.27R FOG     WCI  16
BELLEVILLE     CLEAR     26  26  99 SE6       30.27R WCI  20
CAHOKIA*       PTCLDY    29  26  89 SE6       30.27R WCI  23
SPARTA*        CLEAR     26  25  96 SE6       30.29R WCI  20
$$

ILZ064>066-069>071-074>076-080>082-084>086-088>090-092>094-281400-
SOUTH-CENTRAL ILLINOIS

CITY           SKY/WX    TMP DP  RH WIND       PRES   REMARKS
CARBONDALE     CLEAR     24  21  88 S3        30.30R
CAIRO*         CLEAR     31  29  93 E3        30.31R
EFFINGHAM*     CLEAR     25  18  75 E6        30.32R WCI  18
MARION         CLEAR     25  23  93 S6        30.30S WCI  18
MT. VERNON     CLEAR     27  21  80 E3        30.29F
CENTRALIA*     CLEAR     27  23  87 S5        30.28R WCI  21
SALEM*         CLEAR     28  24  86 E6        30.28F FOG     WCI  21
METROPOLIS*    CLEAR     28  28 100 CALM      30.30R FOG
$$

ILZ067-068-072-073-078-083-087-091-281400-
SOUTHEAST ILLINOIS

CITY           SKY/WX    TMP DP  RH WIND       PRES   REMARKS
LAWRENCEVILLE  CLEAR     24  19  81 E6        30.34R WCI  17
FLORA*         CLEAR     24  22  93 E3        30.32R FOG
FAIRFIELD*     CLEAR     26  23  90 CALM      30.30S
HARRISBURG*    CLEAR     28  28 100 E7        30.31F WCI  20
ROBINSON*      CLEAR     23  19  87 SE7       30.34R WCI  14
CARMI*         CLEAR     26  25  97 E3        30.32R
$$

ABBREVIATIONS USED IN REMARKS
   TC - TEMPERATURE IN CELSIUS
  WCI - WIND CHILL INDEX
   HX - HEAT INDEX
  VSB - VISIBILITY
$$



USA.gov is the U.S. government's official web portal to all federal, state and local government web resources and services.